Content
SEND FEEDBACK

Daily
Averages
Monthly
Summary
United States of America

CASTLE HAYNE, NORTH CAROLINA


Home > North America > United States > North Carolina
Elevation: 35 feet     Latitude: 34 19N     Longitude: 077 55W

WEATHER
 
SELECT A DAY
Number of Records: 208,938;   Date Range: 1/1/95 - 8/12/14
 
SHARE

PRINT THIS DATA

[ ← Previous Day ]
WEATHER ALMANAC - JULY 18, 2013
[ Next Day → ]
[ °C ]   °F
Weather ElementAverageHighLow
Temperature82.2 °F90 °F (1:53 pm)72 °F (6:53 am)
Dewpoint71.3 °F73.9 °F (7:53 am)69.1 °F (11:53 am)
Humidity71.4 %97 % (6:53 am)52 % (11:53 am)
Barometer30.12 in30.15 in (6:53 am)30.08 in (5:53 pm)
Wind Speed4.7 mph11.5 mph (3:53 pm)
Weather ElementAverage
Visibility8.6 mi
Wind DirectionESE (98.8 °)

Weather ElementTotal
Precipitation0.01 in
Cooling Degree Days16 (Base 65)
Growing Degree Days31 (Base 50)
Averaged from 25 records on July 18, 2013
WEATHER CONDITIONS BREAKOUT
WIND DIRECTION BREAKOUT
WEATHER BY HOUR - JULY 18, 2013
[ °C ]   °F
Local TimeTemperatureDewpointHumidityBarometerVisibilityWind DirectionWind SpeedGust SpeedPrecipitationEventsConditions
1:53 AM73.9 °F71.1 °F91 %30.14 in8.0 miCalmClear
2:53 AM73.0 °F71.1 °F93 %30.12 in8.0 miCalmClear
3:53 AM73.0 °F71.1 °F93 %30.11 in6.0 miCalmClear
4:53 AM73.0 °F71.1 °F93 %30.12 in6.0 miCalmClear
5:53 AM73.0 °F71.1 °F93 %30.13 in6.0 miCalmClear
6:53 AM72.0 °F71.1 °F97 %30.15 in4.0 miCalmClear
7:53 AM77.0 °F73.9 °F90 %30.14 in7.0 miCalmClear
8:53 AM82.0 °F73.0 °F74 %30.14 in10.0 miCalm0.01 inClear
9:53 AM86.0 °F70.0 °F59 %30.14 in10.0 miSSW (210°)3.5 mphClear
10:53 AM87.1 °F70.0 °F57 %30.15 inVariable3.5 mphScattered Clouds
11:53 AM89.1 °F69.1 °F52 %30.14 in10.0 miVariable5.8 mphMostly Cloudy
12:38 PM89.6 °F69.8 °F52 %30.14 in2.0 miNorthHaze
12:48 PM87.8 °F69.8 °F55 %30.15 in10.0 miNorthMostly Cloudy
12:53 PM88.0 °F70.0 °F55 %30.15 in10.0 miSouth (190°)9.2 mphMostly Cloudy
1:53 PM90.0 °F70.0 °F52 %30.14 in10.0 miSSW (200°)4.6 mphPartly Cloudy
2:53 PM88.0 °F72.0 °F59 %30.12 in10.0 miSSE (150°)9.2 mphClear
3:53 PM88.0 °F69.1 °F53 %30.10 in10.0 miSouth (170°)11.5 mphClear
4:53 PM88.0 °F71.1 °F57 %30.09 in10.0 miSSE (150°)8.1 mphClear
5:53 PM87.1 °F71.1 °F59 %30.08 in10.0 miSSW (200°)9.2 mphClear
6:53 PM84.9 °F71.1 °F63 %30.08 in10.0 miSouth (190°)10.4 mphClear
7:53 PM82.9 °F72.0 °F69 %30.09 in10.0 miSouth (180°)9.2 mphClear
8:53 PM82.0 °F73.0 °F74 %30.11 in10.0 miSSW (210°)8.1 mphClear
9:53 PM80.1 °F73.9 °F81 %30.12 in10.0 miSSW (210°)5.8 mphClear
10:53 PM80.1 °F73.9 °F81 %30.13 in10.0 miSSW (210°)4.6 mphClear
11:53 PM79.0 °F73.9 °F84 %30.14 in10.0 miSSW (200°)4.6 mphClear
Hourly data recorded from KILM, located miles away from Castle Hayne, North Carolina







STORIES FROM OUR PARTNERS